Welcome, Guest. Please login or register.
Did you miss your activation email?

Username: Password:
Outdoor Wood Furnace Info - Statistics Center
General Statistics
Total Members: 8194
Total Posts: 75453
Total Topics: 7080
Total Categories: 6
Users Online: 12
Most Online: 165 - May 22, 2013, 12:42:02 PM
Online Today: 18
Average registrations per day: 6.70
Average posts per day: 22.77
Average topics per day: 2.64
Total Boards: 50
Latest Member: sheri12
Average online per day: 25.02
Male to Female Ratio: 89.8:1
Top 10 Posters Top 10 Boards
slimjim 5133
mlappin 3752
Scott7m 3740
RSI 2787
willieG 1852
Roger2561 1549
hondaracer2oo4 1420
coolidge 1396
atvalaska 1275
MattyNH 1256
General Outdoor Furnace Discussion 29901
Plumbing 7292
Central Boiler 4592
General Discussion 4282
HeatMaster 3702
Portage & Main 3661
Fire Wood 3226
Home Made 2484
Equipment 2216
Electronics 2155
Top 10 Topics (by Replies) Top 10 Topics (by Views)
new heatmor and having huge issues 491
our wood stoves are horrible but epa thinks this is fine 344
Gasification wood boiler build 303
Almost 172
Wood Consumption vs. Application 144
TYPE of CHAIN SAWS USED 138
ProFab has some issues! 130
Ridgewood stoves 124
Global warming, climate change? Article 124
I'm impressed 123
Synergy Boilers? 578963
HELP! I hate my SHAVER! 466095
TAKE A STAND AGAINST MIDWEST (SYNERGY) BOILERS 444412
Synergy Boilers 98559
Gasification wood boiler build 58376
new heatmor and having huge issues 33706
Truth about Wood Doctor by president 30314
My homemade/modified forced air wood furnace 27959
Suggested Water Temperature on Boiler 27749
Used Hardy Stove info 24158
Top Topic Starters Most Time Online
coolidge 333
Roger2561 209
mlappin 108
slimjim 107
Scott7m 102
d5knapp 78
AirForcePOL 66
userdk 65
hondaracer2oo4 60
heat550 54
slimjim 89d 20h 18m
willieG 89d 16h 0m
RSI 45d 11h 31m
mlappin 35d 22h 27m
Scott7m 35d 21h 14m
koutsman 29d 13h 6m
MD20/20 26d 10h 54m
sceptre74 24d 20h 54m
CountryBoyJohn 20d 23h 41m
Roger2561 20d 4h 40m
Forum History (using forum time offset)
Yearly Summary New Topics New Posts New Members Most Online
* 2018 103 1329 550 54
* 2017 597 7391 3268 65
December 2017 70 940 259 42
November 2017 77 940 272 40
October 2017 66 673 305 48
2017-10-01 3 19 13 25
2017-10-02 1 23 6 28
2017-10-03 3 29 9 25
2017-10-04 3 15 9 26
2017-10-05 0 3 17 20
2017-10-06 3 12 6 19
2017-10-07 1 14 5 23
2017-10-08 0 5 5 21
2017-10-09 0 25 15 25
2017-10-10 1 6 12 23
2017-10-11 3 8 12 21
2017-10-12 2 13 11 25
2017-10-13 3 32 8 20
2017-10-14 0 15 7 22
2017-10-15 4 28 2 24
2017-10-16 2 32 10 25
2017-10-17 3 53 9 22
2017-10-18 3 21 13 23
2017-10-19 0 7 22 22
2017-10-20 0 23 12 24
2017-10-21 0 6 7 22
2017-10-22 2 21 2 27
2017-10-23 3 23 10 26
2017-10-24 1 21 15 26
2017-10-25 4 19 9 26
2017-10-26 4 38 15 28
2017-10-27 3 37 11 29
2017-10-28 4 56 8 25
2017-10-29 6 34 10 48
2017-10-30 1 16 8 27
2017-10-31 3 19 7 29
September 2017 40 581 253 42
August 2017 50 619 275 31
July 2017 16 164 329 33
June 2017 28 227 264 54
2017-06-01 1 16 9 24
2017-06-02 2 7 6 19
2017-06-03 1 11 11 21
2017-06-04 0 4 10 18
2017-06-05 0 7 4 20
2017-06-06 1 3 3 19
2017-06-07 0 2 12 24
2017-06-08 0 1 17 18
2017-06-09 1 10 11 36
2017-06-10 1 6 9 54
2017-06-11 0 7 10 22
2017-06-12 1 8 8 32
2017-06-13 1 4 9 35
2017-06-14 2 7 11 20
2017-06-15 2 19 4 23
2017-06-16 1 16 6 20
2017-06-17 0 5 4 19
2017-06-18 1 3 12 21
2017-06-19 2 12 9 17
2017-06-20 2 16 7 20
2017-06-21 0 6 3 15
2017-06-22 1 6 8 22
2017-06-23 0 3 8 16
2017-06-24 0 1 4 38
2017-06-25 0 1 5 24
2017-06-26 2 7 8 18
2017-06-27 1 9 15 18
2017-06-28 2 20 13 19
2017-06-29 2 5 13 20
2017-06-30 1 5 15 16
May 2017 30 407 291 45
April 2017 40 748 290 60
March 2017 46 601 306 49
February 2017 43 569 241 65
January 2017 91 922 183 53
2017-01-01 5 39 3 26
2017-01-02 3 24 6 28
2017-01-03 3 38 10 53
2017-01-04 2 26 12 30
2017-01-05 2 26 6 25
2017-01-06 5 24 8 32
2017-01-07 5 39 5 35
2017-01-08 1 19 5 27
2017-01-09 9 41 6 28
2017-01-10 3 44 2 25
2017-01-11 5 37 3 23
2017-01-12 3 18 6 27
2017-01-13 4 29 12 32
2017-01-14 1 28 1 27
2017-01-15 5 16 10 26
2017-01-16 2 12 3 23
2017-01-17 2 11 4 25
2017-01-18 2 12 18 26
2017-01-19 1 16 10 29
2017-01-20 2 33 5 36
2017-01-21 2 17 1 34
2017-01-22 3 46 3 28
2017-01-23 3 61 3 27
2017-01-24 4 37 1 27
2017-01-25 2 60 4 37
2017-01-26 2 17 6 28
2017-01-27 0 10 9 52
2017-01-28 3 19 6 27
2017-01-29 1 68 3 25
2017-01-30 5 36 4 23
2017-01-31 1 19 8 21
* 2016 546 5025 3090 75
December 2016 75 786 262 49
November 2016 55 512 251 75
October 2016 50 389 217 39
September 2016 43 244 237 27
August 2016 20 105 129 44
July 2016 14 75 126 53
June 2016 11 86 151 49
May 2016 22 164 179 39
April 2016 22 222 548 51
March 2016 43 454 576 68
2016-03-01 4 28 7 27
2016-03-02 4 29 7 31
2016-03-03 1 19 12 25
2016-03-04 1 19 6 27
2016-03-05 1 8 6 25
2016-03-06 3 32 3 29
2016-03-07 3 20 6 28
2016-03-08 0 9 3 24
2016-03-09 0 5 12 28
2016-03-10 1 7 6 40
2016-03-11 0 9 6 25
2016-03-12 0 20 3 25
2016-03-13 1 8 4 24
2016-03-14 4 27 6 30
2016-03-15 0 10 5 25
2016-03-16 1 5 4 26
2016-03-17 1 7 8 25
2016-03-18 1 14 6 22
2016-03-19 1 17 31 20
2016-03-20 2 7 26 24
2016-03-21 1 15 27 33
2016-03-22 1 16 34 30
2016-03-23 3 17 44 32
2016-03-24 1 8 29 26
2016-03-25 2 20 28 27
2016-03-26 1 17 36 25
2016-03-27 1 16 36 25
2016-03-28 1 9 46 34
2016-03-29 1 12 50 48
2016-03-30 1 11 43 68
2016-03-31 1 13 36 45
February 2016 74 806 123 58
January 2016 117 1182 291 52
* 2015 1317 11279 9513 67
December 2015 106 910 2179 40
November 2015 236 968 2620 60
October 2015 169 843 906 46
September 2015 42 202 593 35
2015-09-01 3 27 11 27
2015-09-02 3 8 32 26
2015-09-03 3 9 30 26
2015-09-04 5 14 24 23
2015-09-05 1 8 28 24
2015-09-06 2 18 23 24
2015-09-07 2 5 18 24
2015-09-08 0 2 8 26
2015-09-10 0 2 16 28
2015-09-11 0 0 25 31
2015-09-12 0 1 20 32
2015-09-13 1 3 24 33
2015-09-14 0 5 21 35
2015-09-15 0 5 20 32
2015-09-16 1 5 12 26
2015-09-17 2 6 22 29
2015-09-18 0 10 26 25
2015-09-19 0 3 27 28
2015-09-20 2 2 30 26
2015-09-21 3 4 16 27
2015-09-22 1 4 20 27
2015-09-23 1 3 28 32
2015-09-24 1 2 18 26
2015-09-25 2 4 17 24
2015-09-26 0 7 14 35
2015-09-27 1 2 10 35
2015-09-28 1 8 4 30
2015-09-29 5 23 31 28
2015-09-30 2 12 18 29
August 2015 49 274 447 41
July 2015 35 353 449 53
June 2015 32 269 266 42
May 2015 66 519 364 46
April 2015 92 795 418 39
March 2015 113 1670 400 46
February 2015 175 2072 445 56
January 2015 202 2404 426 67
* 2014 2461 21938 4588 110
* 2013 1171 11341 1091 165
December 2013 205 1813 294 78
November 2013 192 1828 102 74
2013-11-01 4 51 1 49
2013-11-02 4 24 5 35
2013-11-03 10 78 5 33
2013-11-04 9 79 4 41
2013-11-05 5 99 5 54
2013-11-06 6 107 3 47
2013-11-07 4 63 1 42
2013-11-08 5 45 4 49
2013-11-09 4 29 1 53
2013-11-10 4 39 2 41
2013-11-11 5 43 3 48
2013-11-12 5 51 5 54
2013-11-13 5 50 4 51
2013-11-14 7 69 3 49
2013-11-15 6 49 2 48
2013-11-16 4 55 1 50
2013-11-17 5 63 5 49
2013-11-18 10 85 2 58
2013-11-19 9 88 5 53
2013-11-20 5 49 2 52
2013-11-21 8 70 3 45
2013-11-22 3 45 3 51
2013-11-23 3 23 3 49
2013-11-24 10 69 5 55
2013-11-25 7 83 3 56
2013-11-26 11 72 4 60
2013-11-27 11 77 6 51
2013-11-28 14 70 9 51
2013-11-29 2 33 2 55
2013-11-30 7 70 1 74
October 2013 141 1460 116 55
September 2013 98 808 75 40
August 2013 38 293 35 45
July 2013 46 253 28 37
June 2013 26 213 86 31
May 2013 51 348 42 165
April 2013 57 539 51 88
March 2013 69 744 58 64
February 2013 110 1403 91 51
January 2013 138 1639 113 49
* 2012 1863 11381 918 70
December 2012 111 1080 102 49
November 2012 921 2147 195 53
October 2012 121 978 101 53
September 2012 78 716 61 34
August 2012 61 404 41 29
July 2012 28 203 25 31
June 2012 19 136 16 19
May 2012 27 234 33 44
April 2012 43 355 51 35
March 2012 74 858 44 26
February 2012 146 1674 88 50
2012-02-01 3 62 6 28
2012-02-02 11 100 4 24
2012-02-03 8 89 0 23
2012-02-04 6 92 1 50
2012-02-05 6 63 2 26
2012-02-06 0 6 0 15
2012-02-07 3 43 2 40
2012-02-08 9 77 4 27
2012-02-09 8 71 3 28
2012-02-10 7 89 8 26
2012-02-11 7 70 4 24
2012-02-12 6 68 6 28
2012-02-13 5 64 1 27
2012-02-14 3 55 3 28
2012-02-15 5 60 4 24
2012-02-16 2 77 3 28
2012-02-17 5 45 1 23
2012-02-18 9 57 7 24
2012-02-19 1 43 1 22
2012-02-20 2 33 4 24
2012-02-21 4 40 2 25
2012-02-22 10 60 2 24
2012-02-23 1 29 2 20
2012-02-24 4 51 5 25
2012-02-25 4 38 2 24
2012-02-26 3 37 1 23
2012-02-27 4 30 3 20
2012-02-28 5 75 4 25
2012-02-29 5 50 3 25
January 2012 234 2596 161 70
* 2011 741 7884 698 76
December 2011 113 1639 94 66
November 2011 141 1631 98 66
October 2011 123 1155 91 76
September 2011 65 726 51 39
August 2011 54 368 42 32
2011-08-01 1 5 0 14
2011-08-02 6 22 1 22
2011-08-03 2 6 0 18
2011-08-04 1 5 1 20
2011-08-05 0 1 0 17
2011-08-06 0 1 1 22
2011-08-07 0 1 1 18
2011-08-08 2 9 2 19
2011-08-09 3 11 1 20
2011-08-10 0 3 0 14
2011-08-11 7 11 4 16
2011-08-12 1 10 1 20
2011-08-13 0 8 2 19
2011-08-14 0 8 0 23
2011-08-15 2 15 1 20
2011-08-16 3 10 2 24
2011-08-17 2 19 2 23
2011-08-18 1 25 1 32
2011-08-19 2 21 1 20
2011-08-20 0 11 0 29
2011-08-21 6 24 3 22
2011-08-22 0 26 4 22
2011-08-23 2 3 1 23
2011-08-24 1 3 1 23
2011-08-25 1 8 1 21
2011-08-26 0 0 1 18
2011-08-27 1 1 3 18
2011-08-28 2 5 1 17
2011-08-29 4 45 2 26
2011-08-30 4 32 3 21
2011-08-31 0 19 1 27
July 2011 25 163 21 41
2011-07-01 0 0 1 19
2011-07-02 1 2 0 27
2011-07-03 0 1 1 36
2011-07-04 0 0 1 27
2011-07-05 1 7 0 27
2011-07-06 0 2 0 25
2011-07-07 0 1 0 27
2011-07-08 0 3 0 25
2011-07-09 0 0 0 23
2011-07-10 0 0 0 25
2011-07-11 0 1 0 23
2011-07-12 0 0 0 28
2011-07-13 1 6 1 23
2011-07-14 1 5 0 29
2011-07-15 1 1 1 16
2011-07-16 0 4 0 21
2011-07-17 0 4 0 41
2011-07-18 2 10 0 26
2011-07-19 0 4 0 21
2011-07-20 0 3 1 18
2011-07-21 2 2 1 22
2011-07-22 2 11 2 20
2011-07-23 3 13 3 21
2011-07-24 0 11 0 28
2011-07-25 2 13 3 27
2011-07-26 2 6 1 24
2011-07-27 4 7 3 17
2011-07-28 1 6 1 16
2011-07-29 1 33 1 19
2011-07-30 1 1 0 18
2011-07-31 0 6 0 16
June 2011 11 83 28 40
May 2011 34 276 34 37
April 2011 49 489 37 32
March 2011 30 310 47 29
2011-03-01 0 11 0 23
2011-03-02 1 7 4 19
2011-03-03 2 9 3 22
2011-03-04 1 5 1 22
2011-03-05 0 9 3 26
2011-03-06 1 14 2 22
2011-03-07 1 8 0 20
2011-03-08 1 11 1 23
2011-03-09 1 5 2 27
2011-03-10 1 4 4 27
2011-03-11 1 4 1 25
2011-03-12 1 10 2 24
2011-03-13 1 7 0 20
2011-03-14 1 12 2 19
2011-03-15 1 9 0 26
2011-03-16 0 8 3 22
2011-03-17 0 5 1 17
2011-03-18 3 12 1 23
2011-03-19 2 11 3 26
2011-03-20 2 15 1 26
2011-03-21 1 9 0 23
2011-03-22 1 11 2 23
2011-03-23 2 17 1 22
2011-03-24 0 8 0 25
2011-03-25 0 14 0 19
2011-03-26 0 6 0 17
2011-03-27 1 7 4 26
2011-03-28 1 18 3 28
2011-03-29 1 12 0 24
2011-03-30 1 21 2 29
2011-03-31 1 11 1 24
February 2011 38 407 65 31
January 2011 58 637 90 32
* 2010 444 2717 284 98
December 2010 51 657 81 27
2010-12-01 1 25 1 20
2010-12-02 0 11 3 13
2010-12-03 2 13 4 16
2010-12-04 0 4 1 14
2010-12-05 0 20 1 18
2010-12-06 1 17 0 17
2010-12-07 3 27 4 20
2010-12-08 8 34 4 20
2010-12-09 1 34 2 21
2010-12-10 3 33 3 16
2010-12-11 0 23 1 16
2010-12-12 1 13 2 15
2010-12-13 3 43 5 26
2010-12-14 0 15 1 18
2010-12-15 2 17 3 24
2010-12-16 1 31 6 18
2010-12-17 2 28 1 22
2010-12-18 4 31 1 19
2010-12-19 0 13 1 24
2010-12-20 3 19 1 19
2010-12-21 2 20 4 20
2010-12-22 1 15 1 21
2010-12-23 0 8 1 18
2010-12-24 1 7 1 16
2010-12-25 3 16 1 17
2010-12-26 1 16 9 26
2010-12-27 1 22 8 24
2010-12-28 1 39 5 27
2010-12-29 2 27 4 21
2010-12-30 2 17 1 20
2010-12-31 2 19 1 22
November 2010 39 339 52 25
October 2010 43 332 38 20
September 2010 34 254 23 14
August 2010 9 72 14 14
July 2010 10 60 8 16
June 2010 11 51 4 15
May 2010 8 42 9 12
April 2010 13 94 10 13
March 2010 157 266 11 14
February 2010 23 193 7 98
January 2010 46 357 27 18
* 2009 217 1823 163 20
December 2009 15 142 18 11
2009-12-01 1 2 1 8
2009-12-02 0 4 0 7
2009-12-03 1 3 1 8
2009-12-04 0 7 1 11
2009-12-05 2 5 3 5
2009-12-06 1 4 0 9
2009-12-07 0 8 1 9
2009-12-08 1 10 0 7
2009-12-09 0 8 0 11
2009-12-10 1 5 1 6
2009-12-11 0 7 1 10
2009-12-12 0 3 0 8
2009-12-13 0 0 1 6
2009-12-14 0 1 0 7
2009-12-15 1 5 1 8
2009-12-16 0 7 0 9
2009-12-17 1 13 1 9
2009-12-18 2 14 0 7
2009-12-19 0 4 0 6
2009-12-20 0 1 0 7
2009-12-21 1 2 0 7
2009-12-22 0 1 0 7
2009-12-23 0 1 0 8
2009-12-24 1 5 0 6
2009-12-25 0 1 0 6
2009-12-26 0 1 1 6
2009-12-27 0 0 0 6
2009-12-28 1 4 2 7
2009-12-29 0 5 1 9
2009-12-30 0 4 1 9
2009-12-31 1 7 1 7
November 2009 21 148 25 20
October 2009 15 104 19 11
September 2009 10 67 11 10
August 2009 6 37 9 11
July 2009 4 18 1 7
June 2009 6 28 1 8
May 2009 10 36 4 14
April 2009 12 72 7 11
March 2009 37 343 14 16
February 2009 24 324 21 16
January 2009 57 504 33 18
2009-01-01 0 2 0 17
2009-01-02 0 8 1 6
2009-01-03 0 13 1 17
2009-01-04 4 10 1 8
2009-01-05 3 16 0 8
2009-01-06 3 11 0 11
2009-01-07 0 0 1 5
2009-01-08 0 0 0 7
2009-01-09 0 1 0 6
2009-01-10 1 4 0 4
2009-01-11 1 5 1 14
2009-01-12 0 4 1 6
2009-01-13 1 6 1 8
2009-01-14 1 28 2 11
2009-01-15 0 27 2 9
2009-01-16 0 12 5 13
2009-01-17 3 11 1 9
2009-01-18 1 5 3 10
2009-01-19 0 3 0 7
2009-01-20 5 31 0 10
2009-01-21 1 16 0 13
2009-01-22 3 40 2 15
2009-01-23 3 33 0 11
2009-01-24 3 43 2 9
2009-01-25 3 33 3 16
2009-01-26 3 25 0 18
2009-01-27 4 24 4 11
2009-01-28 3 16 0 12
2009-01-29 5 27 0 12
2009-01-30 2 33 2 11
2009-01-31 4 17 0 12
* 2008 119 553 148 28